Location: Fauquembergues
(50.6005°N, 2.0987°E)
Time: 09:49:47
(UTC+00:00)

COBE Rocket - Pass Details

Date: 14 July 2020
Orbit: 679 x 783 km, 97.1° (Epoch: 05 August)

Event Time Altitude Azimuth Distance (km) Brightness Sun altitude
Exits shadow 02:23:53 - 172° (S) 2,648 6.3 -10.9°
Reaches altitude 10° 02:24:49 10° 173° (S) 2,272 6.0 -10.8°
Maximum altitude 02:29:49 73° 259° (WSW) 777 3.9 -10.4°
Drops below altitude 10° 02:34:43 10° 344° (NNW) 2,222 6.9 -9.9°
Sets 02:36:59 0° 346° (NNW) 3,131 7.8 -9.7°
